This is the latest recevied weather packets stored in our database for station/object N9BID. If no packets are shown the sender has not sent any weather packets the latest 10 day(s).
| Time | Temp. | Humidity | Pressure | Rain* | Wind** | Luminosity | Snow |
|---|---|---|---|---|---|---|---|
| 1777928568 | 16.67° C | 45% | 989.3 hPa | 0 mm | - | 288 W/m² | - |
| 1777928265 | 17.22° C | 45% | 989.5 hPa | 0 mm | - | 230 W/m² | - |
| 1777927963 | 17.78° C | 43% | 989.4 hPa | 0 mm | - | 231 W/m² | - |
| 1777927661 | 17.22° C | 43% | 989.4 hPa | 0 mm | - | 338 W/m² | - |
| 1777927359 | 17.22° C | 41% | 989.3 hPa | 0 mm | - | 280 W/m² | - |
| 1777927058 | 17.78° C | 43% | 989.2 hPa | 0 mm | - | 207 W/m² | - |
| 1777926755 | 17.22° C | 45% | 989.3 hPa | 0 mm | - | 276 W/m² | - |
| 1777926455 | 17.78° C | 42% | 989.1 hPa | 0 mm | - | 295 W/m² | - |
| 1777926152 | 17.22° C | 45% | 989.2 hPa | 0 mm | - | 491 W/m² | - |
| 1777925850 | 17.78° C | 40% | 989.3 hPa | 0 mm | - | 201 W/m² | - |
| 1777925547 | 17.78° C | 41% | 989.1 hPa | 0 mm | - | 505 W/m² | - |
| 1777925245 | 17.78° C | 41% | 989.1 hPa | 0 mm | - | 428 W/m² | - |
| 1777924940 | 17.78° C | 41% | 989.3 hPa | 0 mm | - | 443 W/m² | - |
| 1777924637 | 17.78° C | 43% | 989.2 hPa | 0 mm | - | 403 W/m² | - |
| 1777924333 | 17.78° C | 42% | 989 hPa | 0 mm | - | 479 W/m² | - |
| 1777924030 | 18.33° C | 41% | 989 hPa | 0 mm | - | 385 W/m² | - |
| 1777923726 | 17.78° C | 40% | 988.9 hPa | 0 mm | - | 379 W/m² | - |
| 1777923423 | 17.78° C | 39% | 988.9 hPa | 0 mm | - | 417 W/m² | - |
| 1777923120 | 17.78° C | 38% | 988.9 hPa | 0 mm | - | 285 W/m² | - |
| 1777922818 | 17.78° C | 41% | 989 hPa | 0 mm | - | 301 W/m² | - |
| 1777922516 | 17.78° C | 39% | 988.9 hPa | 0 mm | - | 295 W/m² | - |
| 1777922214 | 18.33° C | 37% | 988.8 hPa | 0 mm | - | 496 W/m² | - |
| 1777921910 | 18.89° C | 37% | 988.6 hPa | 0 mm | - | 298 W/m² | - |
| 1777921606 | 18.33° C | 40% | 988.9 hPa | 0 mm | - | 354 W/m² | - |
| 1777921303 | 18.89° C | 40% | 989.1 hPa | 0 mm | - | 311 W/m² | - |
* Rain latest hour (hover to see other rain measurements)
** Current wind speed in m/s (hover to see current wind gust speed)